Lid_Strength_Index
12 14 15 14 15 14 15 13 14 14 12 13 13 13 12 12 12 13 13 12 10 8 11 11 10 8 4 4 4 2 2 2 2 2 2 1 2 1 0 -0 -0 -0 0 0
14 16 13 12 12 13 15 13 14 13 12 13 14 13 13 12 12 12 12 13 11 11 11 11 12 12 10 9 5 3 2 2 2 2 2 2 1 0 0 0 0 0 0 1
15 14 12 12 14 15 16 15 15 14 14 14 15 15 14 12 12 12 12 12 12 11 10 10 9 10 11 12 11 6 3 2 2 2 2 1 1 1 1 1 0 0 0 0
14 12 13 13 14 14 17 13 13 13 15 17 15 19 17 14 13 12 12 12 11 11 10 9 9 9 10 9 11 11 5 3 2 1 1 1 2 3 1 1 1 1 1 2
15 14 14 14 14 14 14 11 12 13 15 16 18 19 17 16 15 13 12 12 11 10 9 9 8 7 8 7 9 10 6 2 2 2 1 1 2 1 2 2 2 4 5 5
13 12 13 13 13 13 11 11 13 13 15 19 17 18 19 17 14 12 13 12 11 10 10 9 8 8 8 8 7 7 5 6 4 3 1 2 3 2 3 4 5 6 6 7
15 15 14 12 15 13 12 13 17 18 18 20 18 19 17 16 14 13 11 12 11 10 10 10 10 10 9 9 9 8 6 9 8 7 6 6 6 7 7 8 9 9 10 10
18 19 16 14 14 16 16 14 18 21 22 21 18 19 16 14 13 12 11 11 11 11 10 10 10 10 10 10 10 9 9 10 10 10 9 8 9 9 9 10 10 10 10 11
17 18 14 14 13 13 14 15 14 18 23 20 20 18 15 13 13 12 12 11 11 11 10 10 10 10 11 11 10 10 10 11 11 11 11 11 11 10 11 11 11 11 11 11
15 17 14 13 13 13 13 12 15 17 21 23 21 20 18 16 13 13 12 11 11 11 11 11 11 11 11 11 11 11 11 11 11 10 11 11 11 12 12 12 12 12 12 12
13 14 15 13 14 15 15 15 15 15 17 20 23 20 16 14 12 12 11 11 11 11 10 11 11 11 11 11 11 12 11 11 11 11 12 12 13 13 12 13 13 13 13 13
12 13 16 15 13 13 14 14 14 16 18 19 19 19 14 14 13 11 11 11 10 10 10 11 11 12 12 12 12 12 12 12 12 12 12 13 13 13 13 14 14 14 14 14
10 14 17 16 14 13 14 14 13 14 15 18 18 18 13 14 13 11 11 11 10 11 11 11 12 12 12 13 12 13 13 12 12 13 13 13 13 14 15 15 15 15 15 15
8 13 14 17 16 14 16 14 14 13 17 18 18 17 15 14 13 11 10 10 10 10 10 11 11 12 12 12 12 12 13 12 13 14 14 14 15 15 15 16 16 16 16 15
10 15 14 14 13 13 13 13 14 14 14 15 14 16 14 13 12 10 9 10 10 10 10 10 11 11 12 12 12 12 12 13 13 14 15 15 15 16 16 17 17 16 16 16
11 16 14 15 12 13 14 13 13 12 13 14 16 16 13 13 11 11 10 10 10 10 9 9 10 10 11 12 12 12 13 14 14 15 15 15 16 17 17 17 17 16 17 17
12 14 16 19 14 14 16 14 14 13 12 13 15 13 13 13 12 11 10 9 9 9 9 9 9 10 11 12 12 13 14 14 15 16 16 17 17 18 17 17 17 17 17 17
11 12 14 17 16 20 15 13 12 13 13 12 13 13 12 11 11 10 9 9 8 8 8 8 9 10 11 12 12 13 14 15 16 16 17 18 18 18 18 18 18 18 18 19
11 11 15 17 17 15 13 13 14 15 15 13 13 12 12 11 10 11 8 7 7 7 7 7 8 9 11 12 13 14 15 16 16 17 17 17 17 19 19 20 20 19 20 20
11 11 13 18 18 20 15 10 11 11 15 10 11 11 13 11 13 11 9 8 8 7 7 8 9 10 12 13 14 15 16 16 17 16 17 17 18 20 20 20 20 20 21 20
14 15 15 18 20 17 14 13 11 15 15 13 11 11 12 12 10 10 10 10 8 9 10 10 10 12 12 13 14 15 16 16 16 17 18 19 20 21 21 21 21 23 24 23
14 15 17 19 19 18 14 13 13 12 14 13 11 11 11 11 12 12 12 11 11 11 12 12 12 12 13 14 14 15 16 17 18 19 21 22 22 20 21 23 24 26 26 26
14 13 15 13 15 13 14 13 13 12 13 14 12 12 11 12 12 13 13 13 13 13 13 13 13 14 15 15 14 15 17 18 20 21 22 23 22 22 22 24 25 25 28 27
15 14 14 13 14 14 14 14 14 13 14 13 13 12 13 13 13 14 14 15 14 14 14 14 15 15 16 16 16 16 19 20 21 22 22 23 22 23 24 22 23 27 28 28
13 13 15 15 14 14 14 14 13 13 13 13 13 13 12 14 14 15 15 16 15 16 17 16 15 15 16 17 19 19 20 21 22 22 22 22 23 23 25 24 25 24 24 24
12 13 13 15 11 12 12 12 13 13 13 13 13 13 14 14 14 15 16 16 16 17 17 17 17 16 19 19 21 22 21 21 22 22 22 23 24 25 25 25 26 21 19 17